This is the latest recevied weather packets stored in our database for station/object KA3WVU. If no packets are shown the sender has not sent any weather packets the latest 10 day(s).
| Time | Temp. | Humidity | Pressure | Rain* | Wind** | Luminosity | Snow |
|---|---|---|---|---|---|---|---|
| 1777986172 | 16.67° C | 63% | 1008.8 hPa | 0 mm | - | 148 W/m² | - |
| 1777985868 | 16.67° C | 65% | 1009 hPa | 0 mm | - | 130 W/m² | - |
| 1777985566 | 16.67° C | 65% | 1009 hPa | 0 mm | - | 123 W/m² | - |
| 1777985262 | 16.67° C | 65% | 1009 hPa | 0 mm | - | 126 W/m² | - |
| 1777984959 | 16.67° C | 66% | 1008.9 hPa | 0 mm | - | 96 W/m² | - |
| 1777984654 | 16.11° C | 66% | 1009.1 hPa | 0 mm | - | 103 W/m² | - |
| 1777984351 | 16.11° C | 68% | 1009.1 hPa | 0 mm | - | 97 W/m² | - |
| 1777984048 | 16.11° C | 69% | 1009.4 hPa | 0 mm | - | 70 W/m² | - |
| 1777983745 | 15.56° C | 71% | 1008.9 hPa | 0 mm | - | 83 W/m² | - |
| 1777983442 | 15.56° C | 69% | 1008.9 hPa | 0 mm | - | 67 W/m² | - |
| 1777983139 | 15.56° C | 72% | 1009 hPa | 0 mm | - | 58 W/m² | - |
| 1777982835 | 15° C | 71% | 1009 hPa | 0 mm | - | 52 W/m² | - |
| 1777982531 | 15° C | 71% | 1009.1 hPa | 0 mm | - | 47 W/m² | - |
| 1777982225 | 15° C | 70% | 1009 hPa | 0 mm | - | 53 W/m² | - |
| 1777981923 | 15° C | 73% | 1009.4 hPa | 0 mm | - | 46 W/m² | - |
| 1777981620 | 14.44° C | 73% | 1009.4 hPa | 0 mm | - | 59 W/m² | - |
| 1777981316 | 14.44° C | 75% | 1009.4 hPa | 0 mm | - | 45 W/m² | - |
| 1777981013 | 14.44° C | 73% | 1009.3 hPa | 0 mm | - | 37 W/m² | - |
| 1777980709 | 14.44° C | 73% | 1009.4 hPa | 0 mm | - | 34 W/m² | - |
| 1777980406 | 13.89° C | 77% | 1009.3 hPa | 0 mm | - | 33 W/m² | - |
| 1777980104 | 13.89° C | 75% | 1009 hPa | 0 mm | - | 32 W/m² | - |
| 1777979803 | 13.89° C | 76% | 1009.3 hPa | 0 mm | - | 30 W/m² | - |
| 1777979499 | 13.89° C | 76% | 1009 hPa | 0 mm | - | 26 W/m² | - |
| 1777979195 | 13.33° C | 77% | 1009.3 hPa | 0 mm | - | 22 W/m² | - |
| 1777978893 | 13.33° C | 76% | 1009 hPa | 0 mm | - | 18 W/m² | - |
* Rain latest hour (hover to see other rain measurements)
** Current wind speed in m/s (hover to see current wind gust speed)